APSTAR-6C

Last updated on Sat Nov 01 2025 00:02:49 GMT+0000 (Coordinated Universal Time)

1 43450U 18041A 25304.70958356 -.00000307 00000+0 00000+0 0 9996 2 43450 0.0327 346.3307 0003493 275.5233 167.8895 1.00269570 27511
UTC large
Height (km)
Speed (km/s)
/
Latitude / Longitude
Inclination (degrees)
Orbital Period (minutes)
Azimuth
Elevation
Range (km)
Doppler Factor

Next 0 passes for location: London (51.5072 / 0.1276)

Sorry there are no passes over London.